Flag for Cuba Weather past 2 weeks in Santa Clara, Cuba

Now
93 °F

Passing clouds.


Feels Like: 105 °F
Forecast: 73 / 96 °F
Wind: 10 mph from Southwest

Location: Cienfuegos - Las Villas

Current Time: Jul 29, 2015 at 2:35:17 PM

Latest Report: Jul 29, 2015 at 1:50 PM


Visibility: N/A

Pressure: 30.01 "Hg

Humidity: 56%

Dew point: 75 °F

Location of Santa ClaraLocation

Historic Weather in Santa Clara — Graph

°F

Santa Clara temperature yesterday

Maximum temperature yesterday: 99 °F (at 4:59 PM)
Minimum temperature yesterday: 73 °F (at 6:59 AM)
Average temperature yesterday: 86 °F

Past Weeks' High & Low Weather Summary

 TemperatureHumidityPressure
High99 °F (Jul 28, 4:59 PM)100% (Jul 15, 4:59 AM)30.09 "Hg (Jul 15, 4:59 AM)
Low70 °F (Jul 18, 5:59 AM)39% (Jul 28, 1:52 PM)29.95 "Hg (Jul 26, 2:59 AM)
Average82 °F77%30.03 "Hg
* Reported Jul 14 12:50 PM — Jul 29 12:52 PM, Santa Clara, Weather by CustomWeather, © 2015

Note: Actual official high and low records may vary slightly from our data, if they occured in-between our weather recording intervals... More about our weather records

Advertising

Santa Clara weather history for previous 24 hours

 ConditionsComfort  
Time TempWeatherWind HumidityBarometerVisibility
12:52 PM
Wed, Jul 29
91 °FPassing clouds.5 mph52%30.01 "HgN/A
11:50 AM91 °FPassing clouds.6 mph46%30.01 "HgN/A
10:51 AM88 °FSunny.6 mph59%30.04 "Hg10 mi
9:50 AM84 °FSunny.2 mph70%30.01 "Hg10 mi
8:50 AM81 °FClear.3 mph79%30.01 "Hg6 mi
7:59 AM75 °FMild.5 mph94%30.01 "HgN/A
6:59 AM73 °FMild.5 mph94%29.98 "HgN/A
5:59 AM73 °FMild.3 mph94%29.98 "HgN/A
4:58 AM73 °FMild.3 mph100%29.98 "HgN/A
3:59 AM75 °FMild.6 mph94%29.98 "HgN/A
2:59 AM77 °FWarm.6 mph89%29.98 "HgN/A
1:59 AM79 °FWarm.7 mph89%30.01 "HgN/A
12:59 AM81 °FWarm.7 mph84%30.01 "HgN/A
11:59 PM
Tue, Jul 28
81 °FWarm.8 mph89%30.01 "HgN/A
10:59 PM82 °FWarm.8 mph79%30.01 "HgN/A
9:59 PM84 °FWarm.8 mph74%30.01 "HgN/A
8:59 PM86 °FWarm.8 mph70%30.01 "HgN/A
7:59 PM90 °FHot.9 mph59%29.98 "HgN/A
6:59 PM93 °FExtremely hot.12 mph49%29.98 "HgN/A
5:59 PM99 °FExtremely hot.8 mph42%29.95 "HgN/A
4:59 PM99 °FExtremely hot.8 mph39%29.95 "HgN/A
3:50 PM97 °FPassing clouds.9 mph42%29.98 "Hg6 mi
2:50 PM97 °FPassing clouds.9 mph39%29.98 "Hg6 mi
Weather by CustomWeather, © 2015

See weather overviewHow to use our weather pages